星链-4078 (STARLINK-4078 )

导读 | 星芒AI

STARLINK-4078 是 SpaceX 星链计划中的一颗低轨通信卫星,属于第 17 批组网发射的星链卫星之一。该卫星于 2022 年 11 月 18 日由猎鹰 9 号火箭送入近地轨道,旨在为全球用户提供高速互联网服务。星链系统通过部署大量卫星,构建覆盖全球的宽带网络,尤其服务于偏远地区。STARLINK-4078 采用先进通信技术,具备高带宽和低延迟特性,是实现 SpaceX 构建全球互联网愿景的重要组成部分。

基本信息
目录编号:
52689
目录名称:
STARLINK-4078
国际标识:
2022-053AK
轨道中心:
EARTH
卫星名称:
星链-4078
卫星全名:
星链-4078 (STARLINK-4078 )
卫星状态:
在轨 (已飞行1313 天)
发射日期:
2022-05-18 UTC
国别 :
美国 (US)
星等 :
--
轨道信息
数据来源 国际轨道数据 AOE轨道数据
星历时间 2025-12-20T21:06:09+0800
16小时前
查看轨道信息
2025-12-20T05:00:00+0800
1天前
查看轨道信息
半长轴 6815.105km 6815.168km
偏心率 0.0000676 0.000059
轨道倾角 53.215° 53.215°
近地点辐角 309.878° 336.766°
升交点赤经 100.801° 103.975°
平近点角 50.217° 254.123°
近地点 436.507km 436.628km
远地点 437.429km 437.434km
周期 93.319分钟 93.320分钟
每日圈数 15.430996 15.430784
详细信息
固有亮度:
5
最大亮度:
2.5
卫星平台:
Starlink v1.5
覆盖范围:
全球
运营商:
太空探索技术公司
运营商所在国:
美国
制造商(研发单位):
太空探索技术公司
制造商所在国:
美国
使用方式:
暂无
卫星简介
星链(Starlink)计划是由太空探索技术公司(SpaceX)提出的一个巨型低轨卫星互联网星座项目,计划在2019年至2024年间在太空搭建由约1.2万颗卫星组成的“星链”网络,其中1584颗将部署在地球上空550千米处的近地轨道,并从2020年开始工作。该卫星仍在工作。
2D轨道图
3D轨道图
轨道高度分析图
轨道倾角分析图
轨道综合分析图
查看轨道综合分析图